Meath Environmental Platform

Observations for Trim Market St

Time AQI Temp °C Hum % Pres Pa CO μg/m³ H₂S μg/m³ NO μg/m³ NO₂ μg/m³ O₃ μg/m³ SO₂ μg/m³ PM1 μg/m³ PM2.5 μg/m³ PM10 μg/m³
Wednesday 26 August 2026
08:00 2 17 84 2,147,483,647 0.23 0 1.22 14.46 40.82 0 5.7 7.06 12.42
07:54 2 17.1 84 2,147,483,647 0.23 0 1.28 14.33 41.37 0 4.99 7.05 11.33
07:53 2 17.1 84 2,147,483,647 0.24 0 1.27 13.55 42.8 0 5.7 6.12 9.7
07:52 2 17.1 84 2,147,483,647 0.24 0 1.25 14.83 38.21 0 4.99 6.12 10.25
07:51 2 17.1 84 2,147,483,647 0.25 0 1.31 14.21 40.52 0 3.56 4.72 8.62
07:50 2 17.1 84 2,147,483,647 0.23 0 1.49 14.33 37.67 0 5.7 7.52 12.96
07:49 2 17.1 84 2,147,483,647 0.23 0 1.53 13.1 38.75 0 4.99 5.19 8.62
07:48 2 17.1 84 2,147,483,647 0.23 0 1.58 20.77 40.09 0 4.99 5.19 10.25
07:47 2 17.1 84 2,147,483,647 0.24 0 1.66 16.67 41.79 0 4.99 6.11 11.33
07:46 2 17.1 84 2,147,483,647 0.25 0 1.74 13.86 38.82 0 4.28 4.7 7.53
07:45 2 17.1 84 2,147,483,647 0.25 0 1.58 18.02 35.99 0 2.85 4.72 9.16
07:44 2 17.1 84 2,147,483,647 0.25 0 1.73 19.34 31.65 0 4.99 7.05 10.79
07:43 2 17.1 84 2,147,483,647 0.24 0 1.61 18.03 30.95 0 6.41 6.58 10.79
07:42 2 17.1 84 2,147,483,647 0.24 0 1.42 16.68 33.62 0 4.28 5.65 9.7
07:41 2 17.1 84 2,147,483,647 0.24 0 1.17 13.87 43.1 0 3.56 6.12 11.33
07:23 2 17.1 84 2,147,483,647 0.25 0 1.43 15.13 32.99 0 4.99 6.11 10.24
07:22 2 17.1 84 2,147,483,647 0.25 0 1.43 14.24 30.55 0 5.7 6.11 9.7
07:21 2 17.1 84 2,147,483,647 0.25 0 1.44 15.13 35.03 0 5.7 7.04 12.41
07:20 2 17.1 84 2,147,483,647 0.24 0 1.34 14.49 33.32 0 4.99 6.11 10.78
07:18 2 17.1 84 2,147,483,647 0.27 0 1.32 15.15 28.44 0 5.7 6.57 11.86